| time (UTC) | temp F | wind direction | speed MPH | gust MPH | rain 1hr in | rain 24hr in | rain mn in | humidity % | barometer mb |
| 20260906013037 | 61 | 0 | 0.0 | 0.0 | 0.00 | 0.00 | 0.00 | 66 | 1013.3 |
| 20260906004535 | 64 | 0 | 0.0 | 0.0 | 0.00 | 0.00 | 0.00 | 67 | 1012.7 |
| 20260906003038 | 65 | 0 | 0.0 | 0.0 | 0.00 | 0.00 | 0.00 | 65 | 1012.5 |
| 20260905234544 | 65 | 0 | 0.0 | 1.0 | 0.00 | 0.00 | 0.00 | 65 | 1012.0 |
| 20260905230039 | 70 | 0 | 0.0 | 1.0 | 0.00 | 0.00 | 0.00 | 58 | 1011.9 |
| 20260905223035 | 72 | 147 | 1.0 | 4.0 | 0.00 | 0.00 | 0.00 | 52 | 1011.8 |
| 20260905221538 | 73 | 0 | 0.0 | 2.0 | 0.00 | 0.00 | 0.00 | 53 | 1011.7 |
| 20260905214538 | 75 | 223 | 0.0 | 6.0 | 0.00 | 0.00 | 0.00 | 46 | 1011.6 |
| 20260905210051 | 78 | 0 | 0.0 | 5.0 | 0.00 | 0.00 | 0.00 | 44 | 1011.6 |
| 20260905194538 | 77 | 224 | 0.0 | 6.0 | 0.00 | 0.00 | 0.00 | 46 | 1011.4 |
| 20260905171538 | 77 | 155 | 0.0 | 6.0 | 0.00 | 0.00 | 0.00 | 47 | 1012.3 |
| 20260905163035 | 76 | 118 | 0.0 | 8.0 | 0.00 | 0.00 | 0.00 | 48 | 1012.7 |
| 20260905154537 | 77 | 82 | 1.0 | 7.0 | 0.00 | 0.00 | 0.00 | 49 | 1012.8 |
| 20260905150039 | 74 | 250 | 2.0 | 9.0 | 0.00 | 0.00 | 0.00 | 40 | 1012.7 |
| 20260905141538 | 74 | 121 | 1.0 | 4.0 | 0.00 | 0.00 | 0.00 | 44 | 1012.3 |
| 20260905133038 | 72 | 114 | 2.0 | 9.0 | 0.00 | 0.00 | 0.00 | 48 | 1012.4 |
| 20260905123038 | 69 | 124 | 0.0 | 2.0 | 0.00 | 0.00 | 0.00 | 54 | 1012.5 |
| 20260905114538 | 66 | 0 | 0.0 | 0.0 | 0.00 | 0.00 | 0.00 | 60 | 1012.8 |
| 20260905104537 | 61 | 0 | 0.0 | 0.0 | 0.00 | 0.00 | 0.00 | 62 | 1012.1 |
| 20260905094539 | 63 | 0 | 0.0 | 0.0 | 0.00 | 0.01 | 0.00 | 61 | 1011.6 |
| 20260905090037 | 66 | 0 | 0.0 | 0.0 | 0.00 | 0.01 | 0.00 | 57 | 1011.4 |
| 20260905080038 | 67 | 100 | 0.0 | 4.0 | 0.00 | 0.01 | 0.00 | 56 | 1011.5 |
| 20260905070043 | 67 | 0 | 0.0 | 0.0 | 0.00 | 0.01 | 0.00 | 58 | 1011.8 |
| 20260905064542 | 68 | 0 | 0.0 | 1.0 | 0.00 | 0.01 | 0.00 | 57 | 1011.9 |
| 20260905060040 | 68 | 101 | 0.0 | 2.0 | 0.00 | 0.01 | 0.00 | 55 | 1012.1 |
| 20260905054549 | 67 | 0 | 0.0 | 2.0 | 0.00 | 0.01 | 0.00 | 58 | 1012.3 |
| 20260905044538 | 67 | 0 | 0.0 | 0.0 | 0.00 | 0.25 | 0.00 | 62 | 1012.9 |
| 20260905040047 | 67 | 0 | 0.0 | 0.0 | 0.00 | 0.25 | 0.00 | 62 | 1012.5 |
| 20260905031538 | 68 | 0 | 0.0 | 0.0 | 0.00 | 0.30 | 0.25 | 63 | 1012.6 |
| 20260905021538 | 68 | 0 | 0.0 | 0.0 | 0.00 | 0.30 | 0.25 | 62 | 1012.4 |